Powrót do katalogu

DELTA 1 DEB

AktywnySSO
NORAD 3812·DEBRIS·🇺🇸 United States

Wystrzelony Dec 15, 1968 z Vandenberg Space Force Base

Loading…

Następne Przeloty (najbliższe 24 godziny)

TLE

ŚwieżeSource: Space-Track

Epoka: Sep 14, 2026, 12:15 UTC

1 03812U 68114D   26257.51087201 -.00000043  00000-0  30170-4 0  9993
2 03812 102.4353 281.0633 0071008  11.8899 148.1431 12.37790027608676

Śledź DELTA 1 DEB w czasie rzeczywistym z AllMySat

Download on the App Store